Location: Lake Almanor
(40.2485°N, 121.1442°W)
Time: 16:54:09
(UTC-08:00)

STARLINK-1083 - Pass Details

Date: 29 January 2020
Orbit: 348 x 351 km, 53.0° (Epoch: 17 February)

Event Time Altitude Azimuth Distance (km) Brightness Sun altitude
Rises 18:59:48 0° 315° (NW) 2,165 7.2 -19.3°
Reaches altitude 10° 19:01:55 10° 324° (NW) 1,320 5.9 -19.7°
Enters shadow 19:03:18 22° 341° (NNW) 825 4.6 -20.0°
